Location: B?dargowo
(53.3916°N, 14.4413°E)
Time: 12:41:42
(UTC+00:00)

COSMOS 2251 DEB - Visible Passes

Search period start: 23 February 2024 00:00
Search period end: 04 March 2024 00:00
Orbit: 722 x 746 km, 74.0° (Epoch: 23 February)

Date Brightness Start Highest point End Pass type
(mag) Time Alt. Az. Time Alt. Az. Time Alt. Az.
23 Feb ? 18:11:44 10° N 18:15:20 19° NE 18:16:07 18° NE visible
23 Feb ? 19:52:28 10° NNW 19:55:40 39° NNW 19:55:40 39° NNW visible
23 Feb ? 21:34:42 10° NW 21:35:14 12° NW 21:35:14 12° NW visible
24 Feb ? 17:25:04 10° N 17:27:23 13° NNE 17:29:41 10° ENE visible
24 Feb ? 19:05:18 10° NNW 19:09:32 40° NE 19:09:32 40° NE visible
24 Feb ? 20:46:48 10° NW 20:49:05 24° NW 20:49:05 24° NW visible
25 Feb ? 18:18:15 10° N 18:22:32 26° NE 18:23:25 25° ENE visible
25 Feb ? 19:59:17 10° NNW 20:02:59 47° NW 20:02:59 47° NW visible
26 Feb ? 17:31:20 10° N 17:34:43 17° NE 17:37:21 12° ENE visible
26 Feb ? 19:11:59 10° NNW 19:16:55 66° NE 19:16:55 66° NE visible
26 Feb ? 20:54:02 10° NW 20:56:29 20° WNW 20:56:29 20° WNW visible
27 Feb ? 18:24:49 10° NNW 18:29:35 38° NE 18:30:53 33° E visible
27 Feb ? 20:06:13 10° NW 20:10:28 40° W 20:10:28 40° W visible
28 Feb ? 17:37:45 10° N 17:41:54 24° NE 17:44:55 15° E visible
28 Feb ? 19:18:44 10° NNW 19:23:50 77° WSW 19:24:30 65° S visible
28 Feb ? 21:01:53 10° WNW 21:04:05 13° W 21:04:05 13° W visible
29 Feb ? 18:31:26 10° NNW 18:36:29 60° ENE 18:38:36 33° SE visible
29 Feb ? 20:13:21 10° NW 20:17:26 25° W 20:18:11 24° WSW visible
01 Mar ? 17:44:16 10° NNW 17:48:56 35° NE 17:52:47 14° ESE visible
01 Mar ? 19:25:35 10° NW 19:30:26 46° WSW 19:32:22 31° SSW visible
02 Mar ? 18:38:08 10° NNW 18:43:14 85° WSW 18:46:39 21° SSE visible
02 Mar ? 20:20:56 10° WNW 20:23:45 15° W 20:26:15 11° SW visible
03 Mar ? 17:50:51 10° NNW 17:55:50 54° ENE 18:00:46 10° SE visible
03 Mar ? 19:32:37 10° NW 19:36:53 28° W 19:40:40 12° SSW visible
